PLEIADES 1B

Last updated on Mon Sep 21 2026 00:02:45 GMT+0000 (Coordinated Universal Time)

1 39019U 12068A 26263.64174822 .00000028 00000+0 15795-4 0 9992 2 39019 98.1872 337.3393 0001408 101.5339 258.6018 14.58567132734764
UTC large
Height (km)
Speed (km/s)
/
Latitude / Longitude
Inclination (degrees)
Orbital Period (minutes)
Azimuth
Elevation
Range (km)
Doppler Factor

Next 0 passes for location: London (51.5072 / 0.1276)

No passes found over London.
PLEIADES 1B